• In Uzbekistan
  • List of Countries
  • For 7 days
  • Water Temperature
  • Satellite Maps
  • Weather Map
  • Weather Widgets
  • user-avatar
    Login

    Hourly Weather Klagenfurt

    Today, 17 January, Thursday

    Time Temperature Precipitation Wind Pressure Humidity
    00:00 -1°C° 0 mm 2 mps 686 mmHg 93%
    01:00 +1°C° 0 mm 2 mps 686 mmHg 93%
    02:00 +1°C° 0 mm 2 mps 686 mmHg 93%
    03:00 +1°C° 0 mm 2 mps 685 mmHg 93%
    04:00 +1°C° 0 mm 2 mps 685 mmHg 92%
    05:00 +1°C° 0 mm 2 mps 685 mmHg 92%
    06:00 +1°C° 0 mm 2 mps 685 mmHg 92%
    07:00 +2°C° 0 mm 1 mps 685 mmHg 92%
    08:00 +3°C° 0.1 mm 1 mps 685 mmHg 91%
    09:00 +2°C° 0.1 mm 2 mps 685 mmHg 90%
    10:00 +3°C° 0.1 mm 2 mps 686 mmHg 89%
    11:00 +4°C° 0.1 mm 2 mps 685 mmHg 86%
    12:00 +4°C° 0.1 mm 2 mps 685 mmHg 84%
    13:00 +4°C° 0.1 mm 3 mps 685 mmHg 81%
    14:00 +4°C° 0.1 mm 2 mps 684 mmHg 84%
    15:00 +4°C° 0.1 mm 2 mps 684 mmHg 87%
    16:00 +3°C° 0.1 mm 2 mps 683 mmHg 91%
    17:00 +3°C° 0.7 mm 2 mps 683 mmHg 92%
    18:00 +4°C° 0.7 mm 1 mps 683 mmHg 93%
    19:00 +4°C° 0.7 mm 1 mps 683 mmHg 94%
    20:00 +4°C° 2 mm 1 mps 683 mmHg 94%
    21:00 +4°C° 2 mm 1 mps 683 mmHg 94%
    22:00 +4°C° 2 mm 1 mps 683 mmHg 94%
    23:00 +4°C° 2.9 mm 1 mps 683 mmHg 95%

    Tomorrow, 18 January, Friday

    Time Temperature Precipitation Wind Pressure Humidity
    00:00 +3°C° 2.9 mm 1 mps 683 mmHg 95%
    01:00 +3°C° 2.9 mm 1 mps 683 mmHg 95%
    02:00 +3°C° 3.8 mm 1 mps 683 mmHg 95%
    03:00 +1°C° 3.8 mm 2 mps 683 mmHg 94%
    04:00 +1°C° 3.8 mm 2 mps 683 mmHg 93%
    05:00 -1°C° 3.6 mm 2 mps 683 mmHg 93%
    06:00 -2°C° 3.6 mm 2 mps 683 mmHg 94%
    07:00 -3°C° 3.6 mm 2 mps 683 mmHg 94%
    08:00 -3°C° 1.6 mm 2 mps 684 mmHg 94%
    09:00 -3°C° 1.6 mm 2 mps 685 mmHg 94%
    10:00 -2°C° 1.6 mm 2 mps 686 mmHg 93%
    11:00 -2°C° 0.7 mm 2 mps 686 mmHg 91%
    12:00 -2°C° 0.7 mm 2 mps 687 mmHg 88%
    13:00 0°C° 0.7 mm 1 mps 687 mmHg 85%
    14:00 0°C° 0.1 mm 1 mps 687 mmHg 85%
    15:00 0°C° 0.1 mm 1 mps 688 mmHg 84%
    16:00 -1°C° 0.1 mm 1 mps 688 mmHg 84%
    17:00 -2°C° 0 mm 1 mps 688 mmHg 85%
    18:00 -3°C° 0 mm 1 mps 688 mmHg 86%
    19:00 -4°C° 0 mm 1 mps 689 mmHg 87%
    20:00 -4°C° 0 mm 1 mps 689 mmHg 88%
    21:00 -6°C° 0 mm 1 mps 689 mmHg 88%
    22:00 -6°C° 0 mm 1 mps 689 mmHg 89%
    23:00 -7°C° 0 mm 1 mps 689 mmHg 90%

    Day after tomorrow, 19 January, Saturday

    Time Temperature Precipitation Wind Pressure Humidity
    00:00 -7°C° 0 mm 1 mps 689 mmHg 90%
    01:00 -7°C° 0 mm 1 mps 689 mmHg 91%
    02:00 -7°C° 0 mm 0 mps 689 mmHg 91%
    03:00 -7°C° 0 mm 0 mps 688 mmHg 91%
    04:00 -7°C° 0 mm 0 mps 688 mmHg 92%
    05:00 -8°C° 0 mm 0 mps 688 mmHg 92%
    06:00 -8°C° 0 mm 0 mps 688 mmHg 92%
    07:00 -8°C° 0 mm 1 mps 688 mmHg 93%
    08:00 -7°C° 0 mm 1 mps 688 mmHg 91%
    09:00 -6°C° 0 mm 1 mps 688 mmHg 88%
    10:00 -4°C° 0 mm 1 mps 688 mmHg 86%
    11:00 -3°C° 0 mm 1 mps 688 mmHg 84%
    12:00 -2°C° 0 mm 1 mps 688 mmHg 81%
    13:00 -2°C° 0 mm 1 mps 687 mmHg 79%
    14:00 -2°C° 0 mm 1 mps 687 mmHg 81%
    15:00 -2°C° 0 mm 1 mps 686 mmHg 84%
    16:00 -3°C° 0 mm 1 mps 686 mmHg 87%
    17:00 -3°C° 0 mm 1 mps 686 mmHg 88%
    18:00 -4°C° 0 mm 1 mps 686 mmHg 90%
    19:00 -6°C° 0 mm 1 mps 686 mmHg 92%
    20:00 -6°C° 0 mm 1 mps 686 mmHg 92%
    21:00 -6°C° 0 mm 0 mps 686 mmHg 93%
    22:00 -6°C° 0 mm 0 mps 686 mmHg 93%
    23:00 -6°C° 0 mm 0 mps 686 mmHg 93%

    20 January, Sunday

    Time Temperature Precipitation Wind Pressure Humidity
    00:00 -6°C° 0 mm 0 mps 686 mmHg 93%
    01:00 -6°C° 0 mm 0 mps 686 mmHg 92%
    02:00 -7°C° 0 mm 0 mps 686 mmHg 92%
    03:00 -7°C° 0 mm 0 mps 685 mmHg 92%
    04:00 -7°C° 0 mm 0 mps 685 mmHg 91%
    05:00 -7°C° 0 mm 0 mps 685 mmHg 91%
    06:00 -7°C° 0 mm 0 mps 685 mmHg 90%
    07:00 -8°C° 0 mm 0 mps 685 mmHg 90%
    08:00 -6°C° 0 mm 0 mps 686 mmHg 87%
    09:00 -5°C° 0 mm 0 mps 686 mmHg 85%
    10:00 -3°C° 0 mm 0 mps 686 mmHg 83%
    11:00 -2°C° 0 mm 0 mps 686 mmHg 81%
    12:00 -1°C° 0 mm 0 mps 686 mmHg 80%
    13:00 0°C° 0 mm 0 mps 687 mmHg 79%
    14:00 0°C° 0 mm 0 mps 686 mmHg 81%
    15:00 -1°C° 0 mm 0 mps 686 mmHg 83%
    16:00 -2°C° 0 mm 0 mps 686 mmHg 84%
    17:00 -3°C° 0 mm 0 mps 687 mmHg 86%
    18:00 -4°C° 0 mm 0 mps 687 mmHg 88%
    19:00 -6°C° 0 mm 0 mps 687 mmHg 90%
    20:00 -6°C° 0 mm 0 mps 687 mmHg 90%
    21:00 -6°C° 0 mm 0 mps 688 mmHg 90%
    22:00 -6°C° 0 mm 0 mps 688 mmHg 90%
    23:00 -6°C° 0 mm 0 mps 688 mmHg 90%

    21 January, Monday

    Time Temperature Precipitation Wind Pressure Humidity
    00:00 -7°C° 0 mm 0 mps 688 mmHg 90%
    01:00 -7°C° 0 mm 0 mps 688 mmHg 90%
    02:00 -7°C° 0 mm 0 mps 688 mmHg 90%
    03:00 -8°C° 0 mm 0 mps 688 mmHg 89%
    04:00 -8°C° 0 mm 0 mps 688 mmHg 89%
    05:00 -8°C° 0 mm 0 mps 689 mmHg 89%
    06:00 -8°C° 0 mm 0 mps 689 mmHg 89%
    07:00 -8°C° 0 mm 0 mps 689 mmHg 89%
    08:00 -7°C° 0 mm 0 mps 690 mmHg 87%
    09:00 -4°C° 0 mm 1 mps 690 mmHg 85%
    10:00 -3°C° 0 mm 1 mps 690 mmHg 83%
    11:00 -2°C° 0 mm 1 mps 690 mmHg 82%
    12:00 -1°C° 0 mm 1 mps 690 mmHg 81%
    13:00 -1°C° 0 mm 1 mps 690 mmHg 80%
    14:00 -1°C° 0 mm 1 mps 689 mmHg 82%
    15:00 -2°C° 0 mm 1 mps 689 mmHg 84%
    16:00 -2°C° 0 mm 1 mps 689 mmHg 87%
    17:00 -3°C° 0 mm 1 mps 688 mmHg 89%
    18:00 -5°C° 0 mm 0 mps 688 mmHg 91%
    19:00 -6°C° 0 mm 0 mps 688 mmHg 93%
    20:00 -7°C° 0 mm 0 mps 688 mmHg 93%
    21:00 -7°C° 0 mm 0 mps 688 mmHg 93%
    22:00 -7°C° 0 mm 0 mps 688 mmHg 93%
    23:00 -7°C° 0 mm 1 mps 688 mmHg 93%

    22 January, Tuesday

    Time Temperature Precipitation Wind Pressure Humidity
    00:00 -7°C° 0 mm 1 mps 687 mmHg 93%
    01:00 -8°C° 0 mm 1 mps 687 mmHg 93%
    02:00 -8°C° 0 mm 1 mps 687 mmHg 93%
    03:00 -8°C° 0 mm 1 mps 686 mmHg 92%
    04:00 -9°C° 0 mm 1 mps 686 mmHg 92%
    05:00 -9°C° 0 mm 1 mps 685 mmHg 91%
    06:00 -9°C° 0 mm 1 mps 685 mmHg 90%
    07:00 -9°C° 0 mm 1 mps 685 mmHg 89%
    08:00 -8°C° 0 mm 1 mps 684 mmHg 87%
    09:00 -7°C° 0 mm 1 mps 684 mmHg 84%
    10:00 -4°C° 0 mm 1 mps 684 mmHg 82%
    11:00 -3°C° 0 mm 1 mps 684 mmHg 78%
    12:00 -2°C° 0 mm 1 mps 683 mmHg 75%
    13:00 -1°C° 0 mm 1 mps 682 mmHg 71%
    14:00 -2°C° 0 mm 1 mps 682 mmHg 75%
    15:00 -2°C° 0 mm 1 mps 681 mmHg 79%
    16:00 -3°C° 0 mm 1 mps 680 mmHg 82%
    17:00 -4°C° 0 mm 1 mps 680 mmHg 85%
    18:00 -7°C° 0 mm 0 mps 680 mmHg 87%
    19:00 -8°C° 0 mm 0 mps 680 mmHg 90%
    20:00 -8°C° 0 mm 0 mps 679 mmHg 90%
    21:00 -8°C° 0 mm 0 mps 679 mmHg 90%
    22:00 -8°C° 0 mm 0 mps 679 mmHg 90%
    23:00 -9°C° 0 mm 0 mps 679 mmHg 90%
    Show more